Location: Borojevi?i
(45.0486°N, 16.2297°E)
Time: 16:08:29
(UTC+00:00)

Cosmos 1862 Rocket - Pass Details

Date: 08 August 2020
Orbit: 603 x 635 km, 82.5° (Epoch: 18 September)

Event Time Altitude Azimuth Distance (km) Brightness Sun altitude
Rises 19:52:27 0° 354° (N) 2,939 7.8 -15.7°
Reaches altitude 10° 19:54:45 10° 359° (N) 2,023 6.8 -16.0°
Maximum altitude 19:59:10 58° 78° (ENE) 737 3.7 -16.5°
Enters shadow 20:01:03 32° 144° (SE) 1,084 4.2 -16.8°
